[[{"header":{"parameterUnit":"m.s-1","parameterCategory":1,"la1":30.2991,"la2":30.254,"lo1":-89.0895,"lo2":-89.0444,"dy":0.0017,"dx":0.0017,"nx":28,"ny":28,"refTime":"2025-06-20T09:00:00:Z","depth":0,"parameterNumber":2,"parameterNumberName":"U-component_of_WINDS"},"data":[0,0,0,0,0,0,0,0,0,0,0,0,0,0,0,0,0,0,0,0,0,0,0,0,0,0,0,0,0,0,0,0,0,0,0,0,0,0,0,0,0,0,0,0,0,0,0,0,0,0,0,0,0,0,0,0,0,0,-0.6271,-0.627,0,-0.6181,-0.618,-0.6179,-0.6136,-0.6136,-0.6136,-0.6136,-0.6043,-0.6041,-0.6038,0,0,0,0,0,0,0,0,0,0,0,0,0,-0.6405,-0.6403,-0.6271,-0.627,-0.6269,-0.6181,-0.618,-0.6179,-0.6136,-0.6136,-0.6136,-0.6136,-0.6044,-0.6041,-0.6038,0,0,0,0,0,0,0,0,0,0,0,0,0,-0.6335,-0.6402,-0.6271,-0.6237,-0.6233,-0.6182,-0.618,-0.6179,-0.6136,-0.6136,-0.6136,-0.6136,-0.6045,-0.6041,-0.6038,-0.6014,0,0,-0.6026,-0.6025,0,0,0,0,0,0,0,0,-0.6339,-0.633,-0.6243,-0.6239,-0.6234,-0.617,-0.6194,-0.6123,-0.6136,-0.6172,-0.6136,-0.6136,-0.6085,-0.6078,-0.6061,-0.601,-0.6006,-0.6026,-0.6024,-0.6022,-0.6021,0,0,0,0,0,0,0,-0.6344,-0.6333,-0.6235,-0.6242,-0.6236,-0.6226,-0.6216,-0.618,-0.613,-0.6169,-0.6166,-0.6156,-0.6083,-0.6065,-0.6059,-0.6004,-0.6026,-0.6023,-0.602,-0.6019,-0.5931,-0.5931,0,0,0,0,0,0,-0.6354,-0.6338,-0.6238,-0.6233,-0.6288,-0.6223,-0.6212,-0.619,-0.613,-0.6121,-0.6156,-0.6154,-0.6071,-0.6063,-0.6055,-0.6025,-0.6022,-0.6018,-0.6016,-0.5931,-0.5931,-0.5931,0,0,0,0,0,0,-0.6357,-0.6346,-0.6242,-0.6284,-0.627,-0.6221,-0.6197,-0.6189,-0.6171,-0.612,-0.6111,-0.6147,-0.6071,-0.6061,-0.6025,-0.6021,-0.6017,-0.6013,-0.5931,-0.5931,-0.5931,-0.5963,0,0,0,0,0,0,-0.6361,-0.6347,-0.6337,-0.6284,-0.6268,-0.6213,-0.6197,-0.6187,-0.6164,-0.6161,-0.6109,-0.61,-0.607,-0.6031,-0.6021,-0.6016,-0.6011,-0.5931,-0.5931,-0.5931,-0.5962,-0.5964,-0.5965,0,0,0,0,0,-0.6366,-0.6349,-0.6337,-0.6325,-0.6255,-0.6213,-0.6203,-0.6169,-0.6164,-0.6154,-0.6122,-0.6102,-0.6023,-0.6028,-0.6017,-0.601,-0.5931,-0.5931,-0.5931,-0.5961,-0.5963,-0.5965,0,0,0,0,0,0,-0.6401,-0.6341,-0.6327,-0.6292,-0.6258,-0.6205,-0.6191,-0.6173,-0.6139,-0.6137,-0.6096,-0.6085,-0.6053,-0.6028,-0.6034,-0.5985,-0.5975,-0.5973,-0.6002,-0.6004,-0.6006,-0.6012,-0.6007,0,0,0,0,0,-0.6405,-0.6376,-0.6325,-0.6299,-0.6283,-0.6241,-0.6221,-0.6198,-0.6161,-0.6146,-0.6111,-0.6076,-0.6043,-0.6022,-0.5989,-0.5959,-0.5947,-0.5948,-0.595,-0.5952,-0.595,-0.5934,-0.5934,-0.593,-0.593,-0.593,0,0,-0.6412,-0.6376,-0.636,-0.6306,-0.6276,-0.6248,-0.6228,-0.6198,-0.6177,-0.6141,-0.6106,-0.6079,-0.6037,-0.6005,-0.5988,-0.5982,-0.5949,-0.5952,-0.5953,-0.595,-0.5934,-0.5934,-0.5934,-0.593,-0.593,-0.593,0,0,-0.6411,-0.638,-0.6356,-0.6328,-0.6284,-0.6257,-0.6251,-0.6202,-0.6183,-0.6148,-0.6121,-0.6095,-0.6039,-0.6011,-0.5989,-0.5981,-0.5961,-0.5971,-0.598,-0.5964,-0.5965,-0.5965,-0.5962,-0.5962,-0.5969,-0.597,-0.597,0,-0.6425,-0.638,-0.6346,-0.6318,-0.6295,-0.6263,-0.6239,-0.6213,-0.6161,-0.6147,-0.6141,-0.6072,-0.6041,-0.6003,-0.6001,-0.5984,-0.5977,-0.5976,-0.5967,-0.5967,-0.5967,-0.5964,-0.5963,-0.5971,-0.5971,-0.5971,-0.5971,0,-0.6401,-0.6371,-0.6357,-0.6308,-0.6284,-0.6258,-0.6221,-0.6201,-0.6181,-0.6154,-0.6119,-0.6082,-0.6041,-0.6031,-0.601,-0.599,-0.5987,-0.5975,-0.5965,-0.5969,-0.5966,-0.5965,-0.5973,-0.5973,-0.5972,-0.5972,0,0,-0.6417,-0.6352,-0.6347,-0.6326,-0.6277,-0.6253,-0.6227,-0.6188,-0.6172,-0.6138,-0.6115,-0.6071,-0.606,-0.6035,-0.6012,-0.5998,-0.5995,-0.5988,-0.5986,-0.5991,-0.5972,-0.5981,-0.5981,-0.5983,-0.5983,-0.5982,-0.5976,0,-0.6409,-0.6359,-0.6329,-0.6292,-0.6265,-0.6235,-0.6213,-0.6181,-0.6156,-0.6129,-0.6101,-0.6071,-0.6058,-0.6044,-0.6029,-0.5999,-0.5991,-0.5999,-0.5962,-0.5961,-0.5973,-0.5979,-0.5988,-0.5983,-0.5974,-0.5974,-0.5974,0,-0.6392,-0.636,-0.6321,-0.6277,-0.6264,-0.6244,-0.6208,-0.6183,-0.6147,-0.6129,-0.6104,-0.6081,-0.6053,-0.6046,-0.6007,-0.6014,-0.5997,-0.598,-0.5979,-0.5974,-0.5967,-0.5974,-0.5981,-0.598,-0.5971,-0.5971,-0.5971,0,-0.6408,-0.6355,-0.6325,-0.6308,-0.6256,-0.6243,-0.6221,-0.6185,-0.6164,-0.6133,-0.6119,-0.6085,-0.6066,-0.604,-0.6009,-0.6007,-0.5974,-0.5964,-0.5959,-0.596,-0.5953,-0.5953,-0.5957,-0.5942,-0.5942,-0.5942,-0.5942,0,-0.6402,-0.6379,-0.6332,-0.6314,-0.6288,-0.6254,-0.623,-0.6206,-0.6174,-0.6151,-0.6124,-0.6103,-0.6063,-0.6038,-0.6013,-0.5986,-0.5977,-0.5963,-0.5957,-0.5965,-0.5967,-0.5953,-0.5953,-0.5942,-0.5942,-0.5942,-0.5942,0,-0.6415,-0.6382,-0.6348,-0.6303,-0.6291,-0.6274,-0.6236,-0.6217,-0.6192,-0.6164,-0.6155,-0.6115,-0.6084,-0.6051,-0.6008,-0.5992,-0.5966,-0.5956,-0.5978,-0.5974,-0.5971,-0.5972,-0.5966,-0.5964,-0.5951,-0.5951,-0.5951,0,-0.6412,-0.6395,-0.6348,-0.6331,-0.631,-0.6283,-0.6262,-0.6229,-0.6209,-0.6168,-0.6155,-0.6123,-0.6094,-0.6046,-0.6014,-0.5982,-0.5972,-0.5972,-0.5966,-0.5976,-0.5972,-0.5974,-0.5972,-0.5973,-0.5973,-0.5974,-0.5974,0,-0.6412,-0.6398,-0.637,-0.6337,-0.6314,-0.6286,-0.6257,-0.6245,-0.6206,-0.6185,-0.6154,-0.6132,-0.609,-0.6058,-0.6022,-0.6,-0.5981,-0.5976,-0.5973,-0.5982,-0.5995,-0.5989,-0.5982,-0.5976,-0.5976,-0.5976,-0.5976,-0.5975,-0.6418,-0.6401,-0.6367,-0.6337,-0.6312,-0.6286,-0.6268,-0.6241,-0.6214,-0.6177,-0.616,-0.6129,-0.6095,-0.6046,-0.6024,-0.6,-0.5994,-0.599,-0.5989,-0.5988,-0.5991,-0.6,-0.5993,-0.5993,-0.5993,-0.5993,-0.5993,0,-0.6417,-0.6394,-0.6367,-0.6328,-0.6305,-0.629,-0.6259,-0.624,-0.6213,-0.6184,-0.6158,-0.6123,-0.6092,-0.6059,-0.6027,-0.6014,-0.6004,-0.6007,-0.6007,-0.6002,-0.5998,-0.6003,-0.6015,-0.6015,-0.6015,-0.6015,-0.6015,-0.6015,-0.6413,-0.6385,-0.6367,-0.6327,-0.6304,-0.6274,-0.6257,-0.6234,-0.6211,-0.6173,-0.6148,-0.6127,-0.6096,-0.6062,-0.6034,-0.6025,-0.6015,-0.602,-0.6008,-0.6004,-0.6002,-0.6001,-0.6006,-0.6018,-0.6018,-0.6015,-0.6015,-0.6015]},{"header":{"parameterUnit":"m.s-1","parameterCategory":1,"la1":30.2991,"la2":30.254,"lo1":-89.0895,"lo2":-89.0444,"dy":0.0017,"dx":0.0017,"nx":28,"ny":28,"refTime":"2025-06-20T09:00:00:Z","depth":0,"parameterNumber":3,"parameterNumberName":"V-component_of_WINDS"},"data":[0,0,0,0,0,0,0,0,0,0,0,0,0,0,0,0,0,0,0,0,0,0,0,0,0,0,0,0,0,0,0,0,0,0,0,0,0,0,0,0,0,0,0,0,0,0,0,0,0,0,0,0,0,0,0,0,0,0,3.3806,3.3806,0,3.3765,3.3765,3.3764,3.3785,3.3786,3.3787,3.3788,3.3739,3.3737,3.3735,0,0,0,0,0,0,0,0,0,0,0,0,0,3.3896,3.3894,3.3806,3.3806,3.3805,3.3766,3.3765,3.3764,3.3784,3.3786,3.3787,3.3788,3.374,3.3737,3.3734,0,0,0,0,0,0,0,0,0,0,0,0,0,3.3856,3.3893,3.3806,3.3811,3.3811,3.3766,3.3765,3.3764,3.3784,3.3786,3.3787,3.3789,3.3741,3.3737,3.3734,3.368,0,0,3.3723,3.3722,0,0,0,0,0,0,0,0,3.3858,3.3853,3.3811,3.381,3.381,3.3782,3.3779,3.3736,3.3784,3.3794,3.3788,3.379,3.3752,3.3747,3.3736,3.3678,3.3676,3.3723,3.3721,3.3719,3.3719,0,0,0,0,0,0,0,3.3861,3.3854,3.379,3.381,3.381,3.3813,3.3809,3.3771,3.3764,3.3793,3.3795,3.379,3.3752,3.3739,3.3735,3.3675,3.3723,3.372,3.3718,3.3717,3.3571,3.357,0,0,0,0,0,0,3.3864,3.3857,3.3791,3.3789,3.3839,3.381,3.3805,3.3789,3.3764,3.3762,3.3789,3.3791,3.3744,3.3739,3.3733,3.3669,3.372,3.3716,3.3714,3.3573,3.3571,3.3569,0,0,0,0,0,0,3.3866,3.3858,3.3793,3.3823,3.3815,3.3807,3.3788,3.3788,3.3775,3.3761,3.3759,3.3777,3.3745,3.3738,3.3694,3.3668,3.3715,3.3712,3.3575,3.3572,3.357,3.354,0,0,0,0,0,0,3.3869,3.3859,3.384,3.3823,3.3813,3.3756,3.3787,3.3786,3.377,3.3773,3.375,3.3748,3.3746,3.3699,3.369,3.3664,3.3709,3.3578,3.3574,3.3571,3.3543,3.3537,3.3531,0,0,0,0,0,3.3872,3.3831,3.3839,3.3831,3.379,3.3754,3.3749,3.375,3.3768,3.3748,3.3739,3.3748,3.3672,3.3694,3.3685,3.3657,3.3579,3.3575,3.3571,3.3546,3.3538,3.3531,0,0,0,0,0,0,3.3843,3.3829,3.3837,3.379,3.3774,3.3758,3.3732,3.3741,3.3717,3.372,3.372,3.3715,3.3669,3.3658,3.3683,3.3604,3.3628,3.3622,3.3612,3.3604,3.3598,3.3601,3.3706,0,0,0,0,0,3.3831,3.3806,3.3794,3.3754,3.3746,3.374,3.3725,3.3727,3.3709,3.3702,3.3689,3.3669,3.3641,3.3622,3.3595,3.3542,3.3537,3.3518,3.3512,3.3507,3.3501,3.3472,3.3464,3.3556,3.3556,3.3556,0,0,3.3806,3.3796,3.3779,3.3748,3.3735,3.3707,3.3734,3.3703,3.3682,3.3696,3.3654,3.3645,3.3622,3.3574,3.3552,3.3563,3.3475,3.3502,3.3498,3.3495,3.3467,3.3459,3.3451,3.3553,3.3554,3.3554,0,0,3.3747,3.3737,3.3702,3.369,3.3672,3.3669,3.366,3.3644,3.3639,3.3597,3.3608,3.3581,3.3532,3.3517,3.3502,3.3438,3.3446,3.3429,3.3396,3.3368,3.3361,3.3355,3.3332,3.3323,3.3424,3.3424,3.3424,0,3.3717,3.3678,3.3683,3.3652,3.3637,3.3652,3.3616,3.3603,3.3575,3.3564,3.3579,3.3519,3.3505,3.3452,3.3437,3.3425,3.3414,3.3431,3.3362,3.3356,3.335,3.3328,3.3319,3.3422,3.3422,3.3422,3.3422,0,3.3643,3.3615,3.3589,3.3566,3.3548,3.3515,3.3513,3.3494,3.3499,3.3494,3.3451,3.3435,3.3406,3.3393,3.3396,3.3342,3.335,3.3363,3.3387,3.3339,3.3318,3.331,3.3419,3.342,3.342,3.3421,0,0,3.3562,3.3544,3.3534,3.3524,3.3505,3.3483,3.345,3.3423,3.3407,3.3388,3.3359,3.3319,3.3332,3.3315,3.3316,3.3291,3.3242,3.3308,3.3307,3.3296,3.3181,3.317,3.3161,3.3248,3.3246,3.3245,3.3182,0,3.3501,3.3446,3.345,3.3397,3.3371,3.3385,3.3357,3.3341,3.3336,3.3312,3.3305,3.3276,3.3295,3.3285,3.3262,3.3253,3.3218,3.3257,3.3219,3.3218,3.3224,3.315,3.3139,3.3081,3.3174,3.3173,3.3172,0,3.3423,3.3404,3.3349,3.3336,3.3325,3.3299,3.3276,3.3253,3.3236,3.3233,3.3216,3.3221,3.3186,3.3213,3.3164,3.319,3.3175,3.3168,3.3166,3.3162,3.3191,3.3143,3.3062,3.3053,3.3159,3.316,3.3161,0,3.337,3.333,3.3293,3.3284,3.3267,3.3248,3.324,3.3225,3.3209,3.3187,3.3177,3.3151,3.3136,3.3115,3.3113,3.3133,3.3064,3.309,3.306,3.306,3.3044,3.3045,3.2959,3.3035,3.3035,3.3035,3.3035,0,3.3301,3.3267,3.3269,3.3246,3.3208,3.3212,3.3173,3.3167,3.3153,3.3127,3.3137,3.3112,3.3111,3.3086,3.3083,3.3043,3.3036,3.3033,3.3032,3.3031,3.3032,3.3021,3.3024,3.3033,3.3033,3.3034,3.3034,0,3.3234,3.3235,3.3195,3.3183,3.318,3.3152,3.3141,3.3118,3.3115,3.3082,3.3075,3.3068,3.3039,3.3035,3.2999,3.2998,3.2949,3.2953,3.2956,3.2956,3.2926,3.2929,3.283,3.2817,3.2902,3.2901,3.29,0,3.319,3.3165,3.3152,3.3137,3.3128,3.3103,3.3088,3.3091,3.3074,3.3053,3.3033,3.3005,3.2983,3.2934,3.2925,3.2898,3.2901,3.2868,3.2897,3.2897,3.29,3.2902,3.2899,3.2862,3.2861,3.2861,3.286,0,3.3112,3.3114,3.3093,3.3072,3.3054,3.3037,3.3021,3.3007,3.3008,3.2989,3.296,3.2943,3.2909,3.288,3.2854,3.2844,3.2851,3.2852,3.2843,3.2842,3.2844,3.2842,3.2941,3.2853,3.2854,3.2855,3.2855,3.2855,3.3055,3.3033,3.3021,3.2997,3.2986,3.2972,3.295,3.2945,3.2922,3.2896,3.2899,3.2867,3.285,3.2816,3.2804,3.2778,3.2788,3.2776,3.2773,3.2769,3.2767,3.2849,3.2773,3.2773,3.2773,3.2773,3.2773,0,3.2977,3.2971,3.2949,3.2928,3.2909,3.2921,3.2904,3.2887,3.286,3.2844,3.2823,3.279,3.2763,3.2753,3.2726,3.2707,3.271,3.27,3.2701,3.2698,3.2759,3.2769,3.2698,3.2698,3.2698,3.2698,3.2698,3.2698,3.2934,3.2899,3.2899,3.2858,3.2851,3.2822,3.2811,3.2797,3.2785,3.2749,3.2728,3.2722,3.2708,3.2681,3.2656,3.2654,3.2643,3.2631,3.263,3.2686,3.2694,3.2701,3.2711,3.2629,3.2629,3.2572,3.2572,3.2571]}]]